Time,TemperatureF,DewpointF,PressureIn,WindDirection,WindDirectionDegrees,WindSpeedMPH,WindSpeedGustMPH,Humidity,HourlyPrecipIn,Conditions,Clouds,dailyrainin,SolarRadiationWatts/m^2,SoftwareType,DateUTC
2013-02-10 00:11:00,34.0,34.0,-100.00,NW,325,0.0,4.0,98,0.00,,,0.00,0.000000,,2013-02-10 09:11:00,
2013-02-10 00:21:00,34.0,34.0,-100.00,NW,325,0.0,4.0,98,0.00,,,0.00,0.000000,,2013-02-10 09:21:00,
2013-02-10 00:31:00,34.0,34.0,-100.00,NW,325,0.0,4.0,98,0.00,,,0.00,0.000000,,2013-02-10 09:31:00,
2013-02-10 00:41:00,34.0,34.0,-100.00,NW,325,0.0,4.0,98,0.00,,,0.00,0.000000,,2013-02-10 09:41:00,
2013-02-10 00:51:00,34.0,34.0,-100.00,NW,325,0.0,4.0,98,0.00,,,0.00,0.000000,,2013-02-10 09:51:00,
2013-02-10 01:11:00,33.0,33.0,-100.00,North,3,0.0,4.0,99,0.00,,,0.00,0.000000,,2013-02-10 10:11:00,
2013-02-10 01:21:00,33.0,33.0,-100.00,North,3,0.0,4.0,99,0.00,,,0.00,0.000000,,2013-02-10 10:21:00,
2013-02-10 01:31:00,33.0,33.0,-100.00,North,3,0.0,4.0,99,0.00,,,0.00,0.000000,,2013-02-10 10:31:00,
2013-02-10 01:41:00,33.0,33.0,-100.00,North,3,0.0,4.0,99,0.00,,,0.00,0.000000,,2013-02-10 10:41:00,
2013-02-10 01:51:00,33.0,33.0,-100.00,North,3,0.0,4.0,99,0.00,,,0.00,0.000000,,2013-02-10 10:51:00,
2013-02-10 01:52:00,32.0,32.0,-100.00,SSE,153,0.0,1.0,99,0.00,,,0.00,0.000000,,2013-02-10 10:52:00,
2013-02-10 02:11:00,32.0,32.0,-100.00,SSE,153,0.0,1.0,99,0.00,,,0.00,0.000000,,2013-02-10 11:11:00,
2013-02-10 02:21:00,32.0,32.0,-100.00,SSE,153,0.0,1.0,99,0.00,,,0.00,0.000000,,2013-02-10 11:21:00,
2013-02-10 02:32:00,32.0,32.0,-100.00,SSE,153,0.0,1.0,99,0.00,,,0.00,0.000000,,2013-02-10 11:32:00,
2013-02-10 02:42:00,32.0,32.0,-100.00,SSE,153,0.0,1.0,99,0.00,,,0.00,0.000000,,2013-02-10 11:42:00,
2013-02-10 02:52:00,32.0,32.0,-100.00,WNW,295,0.0,1.0,100,0.00,,,0.00,0.000000,,2013-02-10 11:52:00,
2013-02-10 03:12:00,32.0,32.0,-100.00,WNW,295,0.0,1.0,100,0.00,,,0.00,0.000000,,2013-02-10 12:12:00,
2013-02-10 03:21:00,32.0,32.0,-100.00,WNW,295,0.0,1.0,100,0.00,,,0.00,0.000000,,2013-02-10 12:21:00,
2013-02-10 03:32:00,32.0,32.0,-100.00,WNW,295,0.0,1.0,100,0.00,,,0.00,0.000000,,2013-02-10 12:32:00,
2013-02-10 03:41:00,32.0,32.0,-100.00,WNW,295,0.0,1.0,100,0.00,,,0.00,0.000000,,2013-02-10 12:41:00,
2013-02-10 06:11:00,33.0,33.0,-100.00,SSW,195,6.0,17.0,100,-99.99,,,0.00,0.000000,,2013-02-10 15:11:00,
2013-02-10 06:21:00,33.0,33.0,-100.00,SSW,195,6.0,17.0,100,-99.99,,,0.00,0.000000,,2013-02-10 15:21:00,
2013-02-10 06:31:00,33.0,33.0,-100.00,SSW,195,6.0,17.0,100,-99.99,,,0.00,0.000000,,2013-02-10 15:31:00,
2013-02-10 06:41:00,33.0,33.0,-100.00,SSW,195,6.0,17.0,100,-99.99,,,0.00,0.000000,,2013-02-10 15:41:00,
2013-02-10 06:51:00,33.0,33.0,-100.00,SSW,195,6.0,17.0,100,-99.99,,,0.00,0.000000,,2013-02-10 15:51:00,
2013-02-10 07:11:00,32.0,32.0,-100.00,South,180,4.0,14.0,100,0.00,,,0.00,0.000000,,2013-02-10 16:11:00,
2013-02-10 07:21:00,32.0,32.0,-100.00,South,180,4.0,14.0,100,0.00,,,0.00,0.000000,,2013-02-10 16:21:00,
2013-02-10 07:32:00,32.0,32.0,-100.00,South,180,4.0,14.0,100,0.00,,,0.00,0.000000,,2013-02-10 16:32:00,
2013-02-10 07:42:00,32.0,32.0,-100.00,South,180,4.0,14.0,100,0.00,,,0.00,0.000000,,2013-02-10 16:42:00,
2013-02-10 07:51:00,32.0,32.0,-100.00,South,180,4.0,14.0,100,0.00,,,0.00,0.000000,,2013-02-10 16:51:00,
2013-02-10 07:52:00,32.0,32.0,-100.00,South,170,3.0,11.0,100,0.00,,,0.00,0.000000,,2013-02-10 16:52:00,
2013-02-10 08:21:00,32.0,32.0,-100.00,South,170,3.0,11.0,100,0.00,,,0.00,0.000000,,2013-02-10 17:21:00,
2013-02-10 08:32:00,32.0,32.0,-100.00,South,170,3.0,11.0,100,0.00,,,0.00,0.000000,,2013-02-10 17:32:00,
2013-02-10 08:42:00,32.0,32.0,-100.00,South,170,3.0,11.0,100,0.00,,,0.00,0.000000,,2013-02-10 17:42:00,
2013-02-10 08:52:00,31.0,31.0,-100.00,SSE,155,4.0,15.0,99,0.00,,,0.00,0.000000,,2013-02-10 17:52:00,
2013-02-10 09:21:00,31.0,31.0,-100.00,SSE,155,4.0,15.0,99,0.00,,,0.00,0.000000,,2013-02-10 18:21:00,
2013-02-10 09:31:00,31.0,31.0,-100.00,SSE,155,4.0,15.0,99,0.00,,,0.00,0.000000,,2013-02-10 18:31:00,
2013-02-10 09:41:00,31.0,31.0,-100.00,SSE,155,4.0,15.0,99,0.00,,,0.00,0.000000,,2013-02-10 18:41:00,
2013-02-10 10:11:00,32.0,32.0,-100.00,SSE,151,2.0,9.0,99,0.00,,,0.00,15.000000,,2013-02-10 19:11:00,
2013-02-10 10:21:00,32.0,32.0,-100.00,SSE,151,2.0,9.0,99,0.00,,,0.00,15.000000,,2013-02-10 19:21:00,
2013-02-10 10:32:00,32.0,32.0,-100.00,SSE,151,2.0,9.0,99,0.00,,,0.00,15.000000,,2013-02-10 19:32:00,
2013-02-10 10:42:00,32.0,32.0,-100.00,SSE,151,2.0,9.0,99,0.00,,,0.00,15.000000,,2013-02-10 19:42:00,
2013-02-10 10:51:00,32.0,32.0,-100.00,SSE,151,2.0,9.0,99,0.00,,,0.00,15.000000,,2013-02-10 19:51:00,
2013-02-10 10:52:00,33.0,33.0,-100.00,SE,143,3.0,9.0,99,0.00,,,0.00,30.000000,,2013-02-10 19:52:00,
2013-02-10 11:11:00,33.0,33.0,-100.00,SE,143,3.0,9.0,99,0.00,,,0.00,30.000000,,2013-02-10 20:11:00,
2013-02-10 11:21:00,33.0,33.0,-100.00,SE,143,3.0,9.0,99,0.00,,,0.00,30.000000,,2013-02-10 20:21:00,
2013-02-10 11:32:00,33.0,33.0,-100.00,SE,143,3.0,9.0,99,0.00,,,0.00,30.000000,,2013-02-10 20:32:00,
2013-02-10 11:42:00,33.0,33.0,-100.00,SE,143,3.0,9.0,99,0.00,,,0.00,30.000000,,2013-02-10 20:42:00,
2013-02-10 12:11:00,33.0,32.0,-100.00,SSE,158,4.0,9.0,98,0.00,,,0.00,37.000000,,2013-02-10 21:11:00,
2013-02-10 12:21:00,33.0,32.0,-100.00,SSE,158,4.0,9.0,98,0.00,,,0.00,37.000000,,2013-02-10 21:21:00,
2013-02-10 12:32:00,33.0,32.0,-100.00,SSE,158,4.0,9.0,98,0.00,,,0.00,37.000000,,2013-02-10 21:32:00,
2013-02-10 12:42:00,33.0,32.0,-100.00,SSE,158,4.0,9.0,98,0.00,,,0.00,37.000000,,2013-02-10 21:42:00,
2013-02-10 12:51:00,33.0,32.0,-100.00,SSE,158,4.0,9.0,98,0.00,,,0.00,37.000000,,2013-02-10 21:51:00,
2013-02-10 12:52:00,33.0,32.0,-100.00,South,175,3.0,12.0,96,0.00,,,0.00,59.000000,,2013-02-10 21:52:00,
2013-02-10 13:21:00,33.0,32.0,-100.00,South,175,3.0,12.0,96,0.00,,,0.00,59.000000,,2013-02-10 22:21:00,
2013-02-10 13:32:00,33.0,32.0,-100.00,South,175,3.0,12.0,96,0.00,,,0.00,59.000000,,2013-02-10 22:32:00,
2013-02-10 13:42:00,33.0,32.0,-100.00,South,175,3.0,12.0,96,0.00,,,0.00,59.000000,,2013-02-10 22:42:00,
2013-02-10 13:52:00,34.0,32.0,-100.00,SSE,166,2.0,9.0,93,0.00,,,0.00,88.000000,,2013-02-10 22:52:00,
2013-02-10 14:11:00,34.0,32.0,-100.00,SSE,166,2.0,9.0,93,0.00,,,0.00,88.000000,,2013-02-10 23:11:00,
2013-02-10 14:21:00,34.0,32.0,-100.00,SSE,166,2.0,9.0,93,0.00,,,0.00,88.000000,,2013-02-10 23:21:00,
2013-02-10 14:32:00,34.0,32.0,-100.00,SSE,166,2.0,9.0,93,0.00,,,0.00,88.000000,,2013-02-10 23:32:00,
2013-02-10 14:41:00,34.0,32.0,-100.00,SSE,166,2.0,9.0,93,0.00,,,0.00,88.000000,,2013-02-10 23:41:00,
2013-02-10 15:22:00,34.0,33.0,-100.00,South,172,2.0,8.0,95,0.00,,,0.00,72.000000,,2013-02-11 00:22:00,
2013-02-10 15:32:00,34.0,33.0,-100.00,South,172,2.0,8.0,95,0.00,,,0.00,72.000000,,2013-02-11 00:32:00,
2013-02-10 15:41:00,34.0,33.0,-100.00,South,172,2.0,8.0,95,0.00,,,0.00,72.000000,,2013-02-11 00:41:00,
2013-02-10 15:51:00,34.0,33.0,-100.00,South,172,2.0,8.0,95,0.00,,,0.00,72.000000,,2013-02-11 00:51:00,
2013-02-10 16:11:00,33.0,31.0,-100.00,SSE,152,2.0,8.0,94,0.00,,,0.00,47.000000,,2013-02-11 01:11:00,
2013-02-10 16:21:00,33.0,31.0,-100.00,SSE,152,2.0,8.0,94,0.00,,,0.00,47.000000,,2013-02-11 01:21:00,
2013-02-10 16:32:00,33.0,31.0,-100.00,SSE,152,2.0,8.0,94,0.00,,,0.00,47.000000,,2013-02-11 01:32:00,
2013-02-10 16:41:00,33.0,31.0,-100.00,SSE,152,2.0,8.0,94,0.00,,,0.00,47.000000,,2013-02-11 01:41:00,
2013-02-10 16:51:00,33.0,31.0,-100.00,SSE,152,2.0,8.0,94,0.00,,,0.00,47.000000,,2013-02-11 01:51:00,
2013-02-10 16:52:00,32.0,31.0,-100.00,South,172,2.0,8.0,97,0.00,,,0.00,24.000000,,2013-02-11 01:52:00,
2013-02-10 17:21:00,32.0,31.0,-100.00,South,172,2.0,8.0,97,0.00,,,0.00,24.000000,,2013-02-11 02:21:00,
2013-02-10 17:31:00,32.0,31.0,-100.00,South,172,2.0,8.0,97,0.00,,,0.00,24.000000,,2013-02-11 02:31:00,
2013-02-10 17:41:00,32.0,31.0,-100.00,South,172,2.0,8.0,97,0.00,,,0.00,24.000000,,2013-02-11 02:41:00,
2013-02-10 17:52:00,31.0,30.0,-100.00,SE,124,1.0,6.0,97,0.00,,,0.00,11.000000,,2013-02-11 02:52:00,
2013-02-10 18:21:00,31.0,30.0,-100.00,SE,124,1.0,6.0,97,0.00,,,0.00,11.000000,,2013-02-11 03:21:00,
2013-02-10 18:31:00,31.0,30.0,-100.00,SE,124,1.0,6.0,97,0.00,,,0.00,11.000000,,2013-02-11 03:31:00,
2013-02-10 18:41:00,31.0,30.0,-100.00,SE,124,1.0,6.0,97,0.00,,,0.00,11.000000,,2013-02-11 03:41:00,
2013-02-10 19:21:00,30.0,29.0,-100.00,ESE,103,2.0,6.0,97,0.00,,,0.00,0.000000,,2013-02-11 04:21:00,
2013-02-10 19:31:00,30.0,29.0,-100.00,ESE,103,2.0,6.0,97,0.00,,,0.00,0.000000,,2013-02-11 04:31:00,
2013-02-10 19:41:00,30.0,29.0,-100.00,ESE,103,2.0,6.0,97,0.00,,,0.00,0.000000,,2013-02-11 04:41:00,
2013-02-10 19:51:00,30.0,29.0,-100.00,ESE,103,2.0,6.0,97,0.00,,,0.00,0.000000,,2013-02-11 04:51:00,
2013-02-10 19:52:00,30.0,29.0,-100.00,ESE,122,2.0,8.0,98,0.00,,,0.00,0.000000,,2013-02-11 04:52:00,
2013-02-10 20:11:00,30.0,29.0,-100.00,ESE,122,2.0,8.0,98,0.00,,,0.00,0.000000,,2013-02-11 05:11:00,
2013-02-10 20:22:00,30.0,29.0,-100.00,ESE,122,2.0,8.0,98,0.00,,,0.00,0.000000,,2013-02-11 05:22:00,
2013-02-10 20:31:00,30.0,29.0,-100.00,ESE,122,2.0,8.0,98,0.00,,,0.00,0.000000,,2013-02-11 05:31:00,
2013-02-10 20:41:00,30.0,29.0,-100.00,ESE,122,2.0,8.0,98,0.00,,,0.00,0.000000,,2013-02-11 05:41:00,
2013-02-10 21:11:00,27.0,27.0,-100.00,ESE,119,1.0,6.0,99,0.00,,,0.00,0.000000,,2013-02-11 06:11:00,
2013-02-10 21:21:00,27.0,27.0,-100.00,ESE,119,1.0,6.0,99,0.00,,,0.00,0.000000,,2013-02-11 06:21:00,
2013-02-10 21:32:00,27.0,27.0,-100.00,ESE,119,1.0,6.0,99,0.00,,,0.00,0.000000,,2013-02-11 06:32:00,
2013-02-10 21:42:00,27.0,27.0,-100.00,ESE,119,1.0,6.0,99,0.00,,,0.00,0.000000,,2013-02-11 06:42:00,
2013-02-10 21:51:00,27.0,27.0,-100.00,ESE,119,1.0,6.0,99,0.00,,,0.00,0.000000,,2013-02-11 06:51:00,
2013-02-10 22:11:00,29.0,29.0,-100.00,SSE,160,2.0,6.0,100,0.00,,,0.00,0.000000,,2013-02-11 07:11:00,
2013-02-10 22:21:00,29.0,29.0,-100.00,SSE,160,2.0,6.0,100,0.00,,,0.00,0.000000,,2013-02-11 07:21:00,
2013-02-10 22:32:00,29.0,29.0,-100.00,SSE,160,2.0,6.0,100,0.00,,,0.00,0.000000,,2013-02-11 07:32:00,
2013-02-10 22:41:00,29.0,29.0,-100.00,SSE,160,2.0,6.0,100,0.00,,,0.00,0.000000,,2013-02-11 07:41:00,
2013-02-10 22:51:00,29.0,29.0,-100.00,SSE,160,2.0,6.0,100,0.00,,,0.00,0.000000,,2013-02-11 07:51:00,
2013-02-10 23:11:00,27.0,27.0,-100.00,SSE,163,2.0,9.0,99,0.00,,,0.00,0.000000,,2013-02-11 08:11:00,
2013-02-10 23:21:00,27.0,27.0,-100.00,SSE,163,2.0,9.0,99,0.00,,,0.00,0.000000,,2013-02-11 08:21:00,
2013-02-10 23:31:00,27.0,27.0,-100.00,SSE,163,2.0,9.0,99,0.00,,,0.00,0.000000,,2013-02-11 08:31:00,
2013-02-10 23:42:00,27.0,27.0,-100.00,SSE,163,2.0,9.0,99,0.00,,,0.00,0.000000,,2013-02-11 08:42:00,
2013-02-10 23:51:00,27.0,27.0,-100.00,SSE,163,2.0,9.0,99,0.00,,,0.00,0.000000,,2013-02-11 08:51:00,